Weather History for Mount Holly, NJ

Change the Weather History Date:

Tuesday, March 4, 2014

  Actual Average (KWRI) Record (KWRI)
Temperature  
Mean Temperature 18 °F -  
Max Temperature 28 °F 46 °F 67 °F (2008)
Min Temperature 9 °F 27 °F 6 °F (2014)
Degree Days  
Heating Degree Days 46    
Moisture  
Dew Point 2 °F    
Average Humidity 50    
Maximum Humidity 65    
Minimum Humidity 32    
Precipitation  
Precipitation 0.00 in - - ()
Sea Level Pressure  
Sea Level Pressure 30.35 in    
Wind  
Wind Speed 3 mph (NNW)    
Max Wind Speed 6 mph    
Max Gust Speed -    
Visibility 10 miles    
Events      
Averages and records for this station are not official NWS values.
T = Trace of Precipitation, MM = Missing Value Source: NWS Daily Summary

Daily Weather History Graph

Daily Weather History Graph

Search for Another Location

Airport:

Trip Planner

Search our weather history database for the weather conditions in past years. The results will help you decide how hot, cold, wet, or windy it might be!

Date:

Astronomy

Mar. 04, 2014 Rise Set
Actual Time 6:28 AM EST 5:54 PM EST
Civil Twilight 6:01 AM EST 6:21 PM EST
Nautical Twilight 5:29 AM EST 6:52 PM EST
Astronomical Twilight 4:58 AM EST 7:24 PM EST
Moon 8:12 AM EST (3/4) 9:59 PM EST (3/4)
Length of Visible Light 12h 20m
Length of Day
11h 26m
Waxing Crescent, 14% of the Moon is Illuminated
Mar 4
Waxing Crescent
Mar 8
First Quarter
Mar 16
Full
Mar 23
Last Quarter
Mar 30
New

Hourly Weather History & Observations

Time (EST) Temp. Windchill Dew Point Humidity Pressure Visibility Wind Dir Wind Speed Gust Speed Precip Events Conditions
12:54 AM 12.0 °F 2.7 °F -0.9 °F 56% 30.35 in 10.0 mi NNW 5.8 mph - N/A   Clear
1:54 AM 12.0 °F 4.1 °F -0.0 °F 59% 30.35 in 10.0 mi NNW 4.6 mph - N/A   Clear
2:54 AM 10.9 °F 1.4 °F -2.0 °F 56% 30.35 in 10.0 mi NNW 5.8 mph - N/A   Clear
3:54 AM 9.0 °F 0.6 °F -2.9 °F 59% 30.35 in 10.0 mi North 4.6 mph - N/A   Clear
4:54 AM 10.0 °F 0.4 °F -2.9 °F 56% 30.37 in 10.0 mi NNW 5.8 mph - N/A   Clear
5:54 AM 10.0 °F 3.6 °F -2.9 °F 56% 30.38 in 10.0 mi NNW 3.5 mph - N/A   Clear
6:54 AM 9.0 °F 2.4 °F -2.0 °F 61% 30.41 in 10.0 mi NNW 3.5 mph - N/A   Clear
7:54 AM 12.0 °F 2.7 °F -0.9 °F 56% 30.43 in 10.0 mi North 5.8 mph - N/A   Clear
8:54 AM 15.1 °F 7.7 °F -0.9 °F 49% 30.44 in 10.0 mi North 4.6 mph - N/A   Clear
9:54 AM 18.0 °F 12.7 °F -0.0 °F 45% 30.43 in 10.0 mi North 3.5 mph - N/A   Clear
10:54 AM 19.9 °F - 1.9 °F 46% 30.42 in 10.0 mi Calm Calm - N/A   Clear
11:54 AM 23.0 °F - 3.0 °F 42% 30.40 in 10.0 mi Calm Calm - N/A   Clear
12:54 PM 25.0 °F 20.7 °F 3.9 °F 41% 30.36 in 10.0 mi North 3.5 mph - N/A   Clear
1:54 PM 26.1 °F - 3.9 °F 39% 30.33 in 10.0 mi Calm Calm - N/A   Clear
2:54 PM 27.0 °F - 3.0 °F 36% 30.32 in 10.0 mi Calm Calm - N/A   Clear
3:54 PM 28.0 °F 24.2 °F 1.9 °F 33% 30.31 in 10.0 mi West 3.5 mph - N/A   Clear
4:54 PM 28.9 °F - 1.9 °F 32% 30.29 in 10.0 mi Calm Calm - N/A   Clear
5:54 PM 26.1 °F - 5.0 °F 41% 30.29 in 10.0 mi Calm Calm - N/A   Clear
6:54 PM 21.9 °F - 5.0 °F 48% 30.30 in 10.0 mi Calm Calm - N/A   Clear
7:54 PM 19.9 °F - 6.1 °F 55% 30.30 in 10.0 mi Calm Calm - N/A   Clear
8:54 PM 18.0 °F - 7.0 °F 62% 30.30 in 10.0 mi Calm Calm - N/A   Clear
9:54 PM 19.9 °F - 7.0 °F 57% 30.28 in 10.0 mi Calm Calm - N/A   Clear
10:54 PM 19.9 °F - 9.0 °F 62% 30.29 in 10.0 mi Calm Calm - N/A   Mostly Cloudy
11:54 PM 19.9 °F - 10.0 °F 65% 30.27 in 10.0 mi Calm Calm - N/A   Overcast